Time,TemperatureF,DewpointF,PressureIn,WindDirection,WindDirectionDegrees,WindSpeedMPH,WindSpeedGustMPH,Humidity,HourlyPrecipIn,Conditions,Clouds,dailyrainin,SolarRadiationWatts/m^2,SoftwareType,DateUTC
2013-10-03 00:02:00,51.4,50.5,29.89,NW,325,0.0,1.0,97,0.00,,,0.09,0.0,meteohub,2013-10-03 05:02:00,
2013-10-03 00:07:00,51.4,50.4,29.89,NW,325,0.0,1.0,96,0.00,,,0.00,0.0,meteohub,2013-10-03 05:07:00,
2013-10-03 00:12:00,51.4,50.4,29.89,NW,325,0.0,1.0,96,0.00,,,0.00,0.0,meteohub,2013-10-03 05:12:00,
2013-10-03 00:17:00,51.6,50.5,29.88,NW,325,0.0,1.0,96,0.00,,,0.00,0.0,meteohub,2013-10-03 05:17:00,
2013-10-03 00:22:00,51.6,50.5,29.88,NW,325,1.0,2.0,96,0.00,,,0.00,0.0,meteohub,2013-10-03 05:22:00,
2013-10-03 00:27:00,51.6,50.5,29.88,NW,325,0.0,2.0,96,0.00,,,0.00,0.0,meteohub,2013-10-03 05:27:00,
2013-10-03 00:32:00,51.6,50.5,29.88,NNW,327,0.0,2.0,96,0.00,,,0.00,0.0,meteohub,2013-10-03 05:32:00,
2013-10-03 00:37:00,51.6,50.5,29.88,NNW,327,0.0,3.0,96,0.00,,,0.00,0.0,meteohub,2013-10-03 05:37:00,
2013-10-03 00:42:00,51.6,50.5,29.88,NW,318,0.0,3.0,96,0.00,,,0.00,0.0,meteohub,2013-10-03 05:42:00,
2013-10-03 00:47:00,51.6,50.5,29.88,NW,317,0.0,3.0,96,0.00,,,0.00,0.0,meteohub,2013-10-03 05:47:00,
2013-10-03 00:52:00,51.8,50.7,29.88,NW,312,0.0,3.0,96,0.00,,,0.00,0.0,meteohub,2013-10-03 05:52:00,
2013-10-03 00:57:00,51.8,50.9,29.88,NNW,333,0.0,2.0,97,0.00,,,0.00,0.0,meteohub,2013-10-03 05:57:00,
2013-10-03 01:02:00,52.0,51.1,29.88,North,5,0.0,2.0,97,0.00,,,0.00,0.0,meteohub,2013-10-03 06:02:00,
2013-10-03 01:07:00,52.0,50.9,29.88,NNE,19,1.0,3.0,96,0.00,,,0.00,0.0,meteohub,2013-10-03 06:07:00,
2013-10-03 01:12:00,52.0,50.9,29.88,NNE,19,0.0,3.0,96,0.00,,,0.00,0.0,meteohub,2013-10-03 06:12:00,
2013-10-03 01:17:00,52.0,50.9,29.88,WNW,290,0.0,3.0,96,0.00,,,0.00,0.0,meteohub,2013-10-03 06:17:00,
2013-10-03 01:22:00,52.0,50.9,29.88,NNW,331,0.0,3.0,96,0.00,,,0.00,0.0,meteohub,2013-10-03 06:22:00,
2013-10-03 01:27:00,52.0,50.9,29.88,NNE,13,2.0,2.0,96,0.00,,,0.00,0.0,meteohub,2013-10-03 06:27:00,
2013-10-03 01:32:00,52.0,50.9,29.88,NNE,28,1.0,3.0,96,0.00,,,0.00,0.0,meteohub,2013-10-03 06:32:00,
2013-10-03 01:37:00,52.0,50.9,29.88,NNE,30,0.0,3.0,96,0.00,,,0.00,0.0,meteohub,2013-10-03 06:37:00,
2013-10-03 01:42:00,52.2,51.1,29.89,NE,40,0.0,3.0,96,0.00,,,0.00,0.0,meteohub,2013-10-03 06:42:00,
2013-10-03 01:47:00,52.2,51.1,29.89,NE,36,0.0,3.0,96,0.00,,,0.00,0.0,meteohub,2013-10-03 06:47:00,
2013-10-03 01:52:00,52.2,51.1,29.89,NE,36,0.0,3.0,96,0.00,,,0.00,0.0,meteohub,2013-10-03 06:52:00,
2013-10-03 01:57:00,52.2,51.1,29.89,NE,36,0.0,3.0,96,0.00,,,0.00,0.0,meteohub,2013-10-03 06:57:00,
2013-10-03 02:02:00,52.2,51.1,29.89,NNE,22,0.0,2.0,96,0.00,,,0.00,0.0,meteohub,2013-10-03 07:02:00,
2013-10-03 02:07:00,52.2,51.1,29.90,NNE,22,0.0,2.0,96,0.00,,,0.00,0.0,meteohub,2013-10-03 07:07:00,
2013-10-03 02:12:00,52.2,51.1,29.90,NNE,22,0.0,1.0,96,0.00,,,0.00,0.0,meteohub,2013-10-03 07:12:00,
2013-10-03 02:17:00,52.2,51.1,29.90,NNE,22,0.0,1.0,96,0.00,,,0.00,0.0,meteohub,2013-10-03 07:17:00,
2013-10-03 02:22:00,52.2,51.1,29.90,NNE,22,0.0,1.0,96,0.00,,,0.00,0.0,meteohub,2013-10-03 07:22:00,
2013-10-03 02:27:00,52.2,51.1,29.89,North,355,1.0,1.0,96,0.00,,,0.00,0.0,meteohub,2013-10-03 07:27:00,
2013-10-03 02:32:00,52.2,51.1,29.89,NNE,26,0.0,2.0,96,0.00,,,0.00,0.0,meteohub,2013-10-03 07:32:00,
2013-10-03 02:37:00,52.2,51.1,29.89,NNE,26,0.0,4.0,96,0.00,,,0.00,0.0,meteohub,2013-10-03 07:37:00,
2013-10-03 02:42:00,52.2,51.1,29.89,NNW,342,0.0,4.0,96,0.00,,,0.00,0.0,meteohub,2013-10-03 07:42:00,
2013-10-03 02:47:00,52.0,50.9,29.89,NW,321,0.0,4.0,96,0.00,,,0.00,0.0,meteohub,2013-10-03 07:47:00,
2013-10-03 02:52:00,52.0,50.9,29.88,NE,36,0.0,2.0,96,0.00,,,0.00,0.0,meteohub,2013-10-03 07:52:00,
2013-10-03 02:57:00,52.0,50.9,29.88,NNE,28,1.0,3.0,96,0.00,,,0.00,0.0,meteohub,2013-10-03 07:57:00,
2013-10-03 03:02:00,52.0,50.9,29.88,NNE,24,0.0,3.0,96,0.00,,,0.00,0.0,meteohub,2013-10-03 08:02:00,
2013-10-03 03:07:00,52.0,50.9,29.88,NE,46,0.0,3.0,96,0.00,,,0.00,0.0,meteohub,2013-10-03 08:07:00,
2013-10-03 03:12:00,52.0,50.9,29.88,NE,42,1.0,3.0,96,0.00,,,0.00,0.0,meteohub,2013-10-03 08:12:00,
2013-10-03 03:17:00,52.0,50.9,29.88,NE,42,1.0,3.0,96,0.00,,,0.00,0.0,meteohub,2013-10-03 08:17:00,
2013-10-03 03:22:00,52.0,50.5,29.88,NNW,331,0.0,3.0,95,0.00,,,0.00,0.0,meteohub,2013-10-03 08:22:00,
2013-10-03 03:27:00,52.0,50.9,29.88,NNW,331,0.0,3.0,96,0.00,,,0.00,0.0,meteohub,2013-10-03 08:27:00,
2013-10-03 03:32:00,52.0,50.5,29.89,NNW,331,0.0,2.0,95,0.00,,,0.00,0.0,meteohub,2013-10-03 08:32:00,
2013-10-03 03:37:00,52.2,51.1,29.89,NNW,331,0.0,1.0,96,0.00,,,0.00,0.0,meteohub,2013-10-03 08:37:00,
2013-10-03 03:42:00,52.2,50.7,29.89,North,350,0.0,2.0,95,0.00,,,0.00,0.0,meteohub,2013-10-03 08:42:00,
2013-10-03 03:47:00,52.0,50.5,29.89,North,350,0.0,2.0,95,0.00,,,0.00,0.0,meteohub,2013-10-03 08:47:00,
2013-10-03 03:52:00,52.0,50.9,29.89,North,350,0.0,2.0,96,0.00,,,0.00,0.0,meteohub,2013-10-03 08:52:00,
2013-10-03 03:57:00,52.2,51.1,29.89,NNE,26,0.0,1.0,96,0.00,,,0.00,0.0,meteohub,2013-10-03 08:57:00,
2013-10-03 04:02:00,52.2,50.7,29.89,NNE,26,0.0,2.0,95,0.00,,,0.00,0.0,meteohub,2013-10-03 09:02:00,
2013-10-03 04:07:00,52.0,50.9,29.89,NNE,26,0.0,2.0,96,0.00,,,0.00,0.0,meteohub,2013-10-03 09:07:00,
2013-10-03 04:12:00,52.0,50.9,29.89,NNE,24,0.0,1.0,96,0.00,,,0.00,0.0,meteohub,2013-10-03 09:12:00,
2013-10-03 04:17:00,52.2,51.1,29.88,NNE,24,0.0,2.0,96,0.00,,,0.00,0.0,meteohub,2013-10-03 09:17:00,
2013-10-03 04:22:00,52.2,51.1,29.89,NNE,24,0.0,2.0,96,0.00,,,0.00,0.0,meteohub,2013-10-03 09:22:00,
2013-10-03 04:27:00,52.2,51.1,29.89,NNE,23,1.0,2.0,96,0.00,,,0.00,0.0,meteohub,2013-10-03 09:27:00,
2013-10-03 04:32:00,52.2,51.1,29.89,NNE,23,0.0,2.0,96,0.00,,,0.00,0.0,meteohub,2013-10-03 09:32:00,
2013-10-03 04:37:00,52.2,51.1,29.89,NNE,23,0.0,1.0,96,0.00,,,0.00,0.0,meteohub,2013-10-03 09:37:00,
2013-10-03 04:42:00,52.2,51.1,29.89,NNE,30,1.0,1.0,96,0.00,,,0.00,0.0,meteohub,2013-10-03 09:42:00,
2013-10-03 04:47:00,52.0,50.9,29.88,NNE,30,2.0,3.0,96,0.00,,,0.00,0.0,meteohub,2013-10-03 09:47:00,
2013-10-03 04:52:00,52.2,51.1,29.89,NE,50,0.0,3.0,96,0.00,,,0.00,0.0,meteohub,2013-10-03 09:52:00,
2013-10-03 04:57:00,52.2,51.1,29.88,NE,50,0.0,4.0,96,0.00,,,0.00,0.0,meteohub,2013-10-03 09:57:00,
2013-10-03 05:02:00,52.2,51.1,29.88,NE,49,0.0,4.0,96,0.00,,,0.00,0.0,meteohub,2013-10-03 10:02:00,
2013-10-03 05:07:00,52.2,51.1,29.89,NE,49,0.0,4.0,96,0.00,,,0.00,0.0,meteohub,2013-10-03 10:07:00,
2013-10-03 05:12:00,52.0,50.9,29.89,NE,35,3.0,3.0,96,0.00,,,0.00,0.0,meteohub,2013-10-03 10:12:00,
2013-10-03 05:17:00,52.2,51.1,29.88,NE,50,0.0,3.0,96,0.00,,,0.00,0.0,meteohub,2013-10-03 10:17:00,
2013-10-03 05:22:00,52.2,51.1,29.88,NE,50,0.0,3.0,96,0.00,,,0.00,0.0,meteohub,2013-10-03 10:22:00,
2013-10-03 05:27:00,52.2,51.1,29.88,NE,49,0.0,3.0,96,0.00,,,0.00,0.0,meteohub,2013-10-03 10:27:00,
2013-10-03 05:32:00,52.2,51.1,29.89,NE,49,0.0,1.0,96,0.00,,,0.00,0.0,meteohub,2013-10-03 10:32:00,
2013-10-03 05:37:00,52.2,51.1,29.88,NE,49,0.0,1.0,96,0.00,,,0.00,0.0,meteohub,2013-10-03 10:37:00,
2013-10-03 05:42:00,52.2,51.1,29.88,NE,49,0.0,2.0,96,0.00,,,0.00,0.0,meteohub,2013-10-03 10:42:00,
2013-10-03 05:47:00,52.2,51.1,29.87,NE,49,0.0,2.0,96,0.00,,,0.00,0.0,meteohub,2013-10-03 10:47:00,
2013-10-03 05:52:00,52.2,51.3,29.87,NE,49,0.0,2.0,97,0.00,,,0.00,0.0,meteohub,2013-10-03 10:52:00,
2013-10-03 05:57:00,52.3,51.4,29.87,NE,49,0.0,2.0,97,0.00,,,0.00,0.0,meteohub,2013-10-03 10:57:00,
2013-10-03 06:02:00,52.3,51.4,29.88,NE,49,0.0,1.0,97,0.00,,,0.00,0.0,meteohub,2013-10-03 11:02:00,
2013-10-03 06:07:00,52.3,51.4,29.88,North,355,1.0,1.0,97,0.00,,,0.00,0.0,meteohub,2013-10-03 11:07:00,
2013-10-03 06:12:00,52.3,51.4,29.88,North,355,1.0,2.0,97,0.00,,,0.00,0.0,meteohub,2013-10-03 11:12:00,
2013-10-03 06:17:00,52.3,51.4,29.88,North,355,0.0,2.0,97,0.00,,,0.00,0.0,meteohub,2013-10-03 11:17:00,
2013-10-03 06:22:00,52.5,51.6,29.88,North,355,0.0,2.0,97,0.00,,,0.00,0.0,meteohub,2013-10-03 11:22:00,
2013-10-03 06:27:00,52.5,51.6,29.89,North,355,0.0,1.0,97,0.00,,,0.00,0.0,meteohub,2013-10-03 11:27:00,
2013-10-03 06:32:00,52.7,51.8,29.89,North,355,0.0,0.0,97,0.00,,,0.00,0.0,meteohub,2013-10-03 11:32:00,
2013-10-03 06:37:00,52.7,51.8,29.89,North,355,0.0,1.0,97,0.00,,,0.00,0.0,meteohub,2013-10-03 11:37:00,
2013-10-03 06:42:00,52.9,52.0,29.88,North,355,0.0,1.0,97,0.00,,,0.00,0.0,meteohub,2013-10-03 11:42:00,
2013-10-03 06:47:00,52.9,52.0,29.89,NNW,331,0.0,2.0,97,0.00,,,0.00,0.0,meteohub,2013-10-03 11:47:00,
2013-10-03 06:52:00,52.9,52.0,29.89,NNW,348,0.0,2.0,97,0.00,,,0.00,0.0,meteohub,2013-10-03 11:52:00,
2013-10-03 06:57:00,52.9,52.0,29.89,NE,47,0.0,2.0,97,0.00,,,0.00,0.0,meteohub,2013-10-03 11:57:00,
2013-10-03 07:02:00,52.9,52.0,29.89,NE,47,0.0,2.0,97,0.00,,,0.00,0.0,meteohub,2013-10-03 12:02:00,
2013-10-03 07:07:00,52.9,52.0,29.89,North,9,0.0,2.0,97,0.00,,,0.00,0.0,meteohub,2013-10-03 12:07:00,
2013-10-03 07:12:00,52.9,52.0,29.89,North,9,0.0,2.0,97,0.00,,,0.00,0.0,meteohub,2013-10-03 12:12:00,
2013-10-03 07:17:00,53.1,52.2,29.88,North,9,0.0,2.0,97,0.00,,,0.00,0.0,meteohub,2013-10-03 12:17:00,
2013-10-03 07:22:00,53.1,52.2,29.88,NW,312,0.0,2.0,97,0.00,,,0.00,0.0,meteohub,2013-10-03 12:22:00,
2013-10-03 07:27:00,53.1,52.2,29.88,NNE,21,0.0,2.0,97,0.00,,,0.00,0.0,meteohub,2013-10-03 12:27:00,
2013-10-03 07:32:00,53.1,52.2,29.88,NNW,347,0.0,2.0,97,0.00,,,0.00,0.0,meteohub,2013-10-03 12:32:00,
2013-10-03 07:37:00,53.1,52.2,29.88,NE,37,0.0,3.0,97,0.00,,,0.00,0.0,meteohub,2013-10-03 12:37:00,
2013-10-03 07:42:00,53.1,52.2,29.88,NNE,24,2.0,3.0,97,0.00,,,0.00,0.0,meteohub,2013-10-03 12:42:00,
2013-10-03 07:47:00,53.1,52.2,29.88,NW,323,2.0,3.0,97,0.00,,,0.00,5.0,meteohub,2013-10-03 12:47:00,
2013-10-03 07:52:00,53.1,52.2,29.88,NNE,32,3.0,5.0,97,0.00,,,0.00,5.0,meteohub,2013-10-03 12:52:00,
2013-10-03 07:57:00,53.1,52.2,29.88,NNE,28,2.0,5.0,97,0.00,,,0.00,5.0,meteohub,2013-10-03 12:57:00,
2013-10-03 08:02:00,53.1,52.2,29.88,NNE,32,0.0,5.0,97,0.00,,,0.00,5.0,meteohub,2013-10-03 13:02:00,
2013-10-03 08:07:00,53.1,52.2,29.87,NE,46,2.0,4.0,97,0.00,,,0.00,5.0,meteohub,2013-10-03 13:07:00,
2013-10-03 08:12:00,53.1,52.2,29.87,North,355,1.0,4.0,97,0.00,,,0.00,7.0,meteohub,2013-10-03 13:12:00,
2013-10-03 08:17:00,53.1,52.2,29.87,NNE,28,3.0,4.0,97,0.00,,,0.00,7.0,meteohub,2013-10-03 13:17:00,
2013-10-03 08:22:00,53.1,52.2,29.87,NNE,32,1.0,4.0,97,0.00,,,0.00,7.0,meteohub,2013-10-03 13:22:00,
2013-10-03 08:27:00,53.1,52.2,29.87,NNW,343,1.0,4.0,97,0.00,,,0.00,11.0,meteohub,2013-10-03 13:27:00,
2013-10-03 08:32:00,53.1,52.2,29.87,NNE,15,1.0,4.0,97,0.00,,,0.00,11.0,meteohub,2013-10-03 13:32:00,
2013-10-03 08:37:00,53.1,52.2,29.87,NNE,15,1.0,4.0,97,0.00,,,0.00,11.0,meteohub,2013-10-03 13:37:00,
2013-10-03 08:42:00,53.2,52.3,29.87,NNW,346,2.0,4.0,97,0.00,,,0.00,11.0,meteohub,2013-10-03 13:42:00,
2013-10-03 08:47:00,53.2,52.3,29.87,NE,41,1.0,6.0,97,0.00,,,0.00,12.0,meteohub,2013-10-03 13:47:00,
2013-10-03 08:52:00,53.2,52.3,29.87,NNE,26,0.0,6.0,97,0.00,,,0.00,11.0,meteohub,2013-10-03 13:52:00,
2013-10-03 08:57:00,53.2,52.3,29.87,NNW,335,0.0,6.0,97,0.00,,,0.00,12.0,meteohub,2013-10-03 13:57:00,
2013-10-03 09:02:00,53.4,52.5,29.88,West,277,0.0,4.0,97,0.00,,,0.00,11.0,meteohub,2013-10-03 14:02:00,
2013-10-03 09:07:00,53.4,52.5,29.88,West,277,1.0,3.0,97,0.00,,,0.00,11.0,meteohub,2013-10-03 14:07:00,
2013-10-03 09:12:00,53.4,52.5,29.88,NNW,334,2.0,3.0,97,0.00,,,0.00,16.0,meteohub,2013-10-03 14:12:00,
2013-10-03 09:17:00,53.4,52.5,29.88,ENE,61,0.0,3.0,97,0.00,,,0.00,19.0,meteohub,2013-10-03 14:17:00,
2013-10-03 09:22:00,53.6,52.7,29.88,ENE,61,0.0,3.0,97,0.00,,,0.00,16.0,meteohub,2013-10-03 14:22:00,
2013-10-03 09:27:00,53.8,52.9,29.88,NNE,12,0.0,3.0,97,0.00,,,0.00,25.0,meteohub,2013-10-03 14:27:00,
2013-10-03 09:32:00,53.8,52.9,29.88,NNW,333,1.0,1.0,97,0.00,,,0.00,32.0,meteohub,2013-10-03 14:32:00,
2013-10-03 09:37:00,54.0,53.1,29.88,West,265,0.0,3.0,97,0.00,,,0.00,40.0,meteohub,2013-10-03 14:37:00,
2013-10-03 09:42:00,54.0,53.1,29.88,NNE,21,0.0,3.0,97,0.00,,,0.00,30.0,meteohub,2013-10-03 14:42:00,
2013-10-03 09:47:00,54.0,53.1,29.88,NNW,344,0.0,3.0,97,0.00,,,0.00,21.0,meteohub,2013-10-03 14:47:00,
2013-10-03 09:52:00,54.0,53.1,29.88,NW,323,2.0,3.0,97,0.00,,,0.00,16.0,meteohub,2013-10-03 14:52:00,
2013-10-03 09:57:00,54.0,53.1,29.88,NW,325,0.0,2.0,97,0.00,,,0.00,21.0,meteohub,2013-10-03 14:57:00,
2013-10-03 10:02:00,54.1,53.2,29.88,NE,50,1.0,2.0,97,0.00,,,0.00,30.0,meteohub,2013-10-03 15:02:00,
2013-10-03 10:07:00,54.1,53.2,29.88,NE,49,0.0,2.0,97,0.00,,,0.00,26.0,meteohub,2013-10-03 15:07:00,
2013-10-03 10:12:00,54.1,53.2,29.88,NE,49,0.0,2.0,97,0.00,,,0.00,28.0,meteohub,2013-10-03 15:12:00,
2013-10-03 10:17:00,54.1,53.2,29.88,NE,49,0.0,2.0,97,0.00,,,0.00,33.0,meteohub,2013-10-03 15:17:00,
2013-10-03 10:22:00,54.1,53.2,29.88,NNE,30,0.0,2.0,97,0.00,,,0.00,39.0,meteohub,2013-10-03 15:22:00,
2013-10-03 10:26:00,54.1,53.2,29.88,NNE,30,0.0,2.0,97,0.00,,,0.00,26.0,meteohub,2013-10-03 15:26:00,
2013-10-03 10:32:00,54.1,53.2,29.88,NNE,32,0.0,3.0,97,0.00,,,0.00,25.0,meteohub,2013-10-03 15:32:00,
2013-10-03 10:37:00,54.1,53.2,29.88,NNE,27,1.0,3.0,97,0.00,,,0.00,30.0,meteohub,2013-10-03 15:37:00,
2013-10-03 10:42:00,54.1,53.2,29.88,NNW,339,0.0,3.0,97,0.00,,,0.00,28.0,meteohub,2013-10-03 15:42:00,
2013-10-03 10:47:00,54.1,53.2,29.88,NNW,334,2.0,4.0,97,0.00,,,0.00,28.0,meteohub,2013-10-03 15:47:00,
2013-10-03 10:52:00,54.1,53.2,29.88,NNE,30,3.0,4.0,97,0.00,,,0.00,26.0,meteohub,2013-10-03 15:52:00,
2013-10-03 10:57:00,54.1,53.2,29.89,NNE,13,0.0,4.0,97,0.00,,,0.00,23.0,meteohub,2013-10-03 15:57:00,
2013-10-03 11:02:00,54.1,53.2,29.89,NE,46,2.0,4.0,97,0.00,,,0.00,28.0,meteohub,2013-10-03 16:02:00,
2013-10-03 11:07:00,54.1,53.2,29.89,North,0,1.0,4.0,97,0.00,,,0.00,30.0,meteohub,2013-10-03 16:07:00,
2013-10-03 11:12:00,54.1,53.2,29.89,North,9,1.0,7.0,97,0.00,,,0.00,33.0,meteohub,2013-10-03 16:12:00,
2013-10-03 11:17:00,54.3,53.4,29.89,NNW,348,0.0,7.0,97,0.00,,,0.00,32.0,meteohub,2013-10-03 16:17:00,
2013-10-03 11:22:00,54.3,53.4,29.89,NNE,23,1.0,7.0,97,0.00,,,0.00,25.0,meteohub,2013-10-03 16:22:00,
2013-10-03 11:27:00,54.3,53.4,29.89,NE,49,0.0,4.0,97,0.00,,,0.00,25.0,meteohub,2013-10-03 16:27:00,
2013-10-03 11:32:00,54.3,53.4,29.90,NE,46,0.0,5.0,97,0.00,,,0.00,21.0,meteohub,2013-10-03 16:32:00,
2013-10-03 11:37:00,54.3,53.4,29.90,NE,34,1.0,5.0,97,0.00,,,0.00,23.0,meteohub,2013-10-03 16:37:00,
2013-10-03 11:42:00,54.3,53.4,29.90,North,350,0.0,4.0,97,0.00,,,0.00,30.0,meteohub,2013-10-03 16:42:00,
2013-10-03 11:47:00,54.3,53.4,29.90,NNE,33,3.0,4.0,97,0.00,,,0.00,42.0,meteohub,2013-10-03 16:47:00,
2013-10-03 11:52:00,54.3,53.4,29.90,NW,321,1.0,5.0,97,0.00,,,0.00,37.0,meteohub,2013-10-03 16:52:00,
2013-10-03 11:57:00,54.5,53.6,29.90,NE,40,2.0,5.0,97,0.00,,,0.00,40.0,meteohub,2013-10-03 16:57:00,
2013-10-03 12:02:00,54.5,53.6,29.89,NE,37,1.0,4.0,97,0.00,,,0.00,49.0,meteohub,2013-10-03 17:02:00,
2013-10-03 12:07:00,54.5,53.6,29.89,NNE,23,1.0,6.0,97,0.00,,,0.00,54.0,meteohub,2013-10-03 17:07:00,
2013-10-03 12:12:00,54.7,54.1,29.89,NE,44,0.0,6.0,98,0.00,,,0.00,40.0,meteohub,2013-10-03 17:12:00,
2013-10-03 12:17:00,54.7,54.1,29.89,NW,322,2.0,6.0,98,0.00,,,0.00,39.0,meteohub,2013-10-03 17:17:00,
2013-10-03 12:22:00,54.7,54.1,29.90,NE,46,3.0,5.0,98,0.00,,,0.00,44.0,meteohub,2013-10-03 17:22:00,
2013-10-03 12:27:00,54.7,54.1,29.90,NNE,26,1.0,5.0,98,0.00,,,0.00,53.0,meteohub,2013-10-03 17:27:00,
2013-10-03 12:32:00,54.9,54.3,29.89,NE,38,1.0,5.0,98,0.00,,,0.00,93.0,meteohub,2013-10-03 17:32:00,
2013-10-03 12:37:00,54.9,54.3,29.89,NNE,18,2.0,6.0,98,0.00,,,0.00,91.0,meteohub,2013-10-03 17:37:00,
2013-10-03 12:42:00,55.0,54.5,29.89,North,350,0.0,6.0,98,0.00,,,0.00,83.0,meteohub,2013-10-03 17:42:00,
2013-10-03 12:47:00,55.2,54.7,29.89,NNE,29,2.0,6.0,98,0.00,,,0.00,81.0,meteohub,2013-10-03 17:47:00,
2013-10-03 12:52:00,55.2,54.7,29.89,North,11,0.0,4.0,98,0.00,,,0.00,72.0,meteohub,2013-10-03 17:52:00,
2013-10-03 12:57:00,55.4,54.9,29.89,NNE,29,0.0,4.0,98,0.00,,,0.00,67.0,meteohub,2013-10-03 17:57:00,
2013-10-03 13:02:00,55.2,54.7,29.89,NNE,13,0.0,5.0,98,0.00,,,0.00,46.0,meteohub,2013-10-03 18:02:00,
2013-10-03 13:07:00,55.2,54.3,29.89,NE,55,2.0,5.0,97,0.00,,,0.00,44.0,meteohub,2013-10-03 18:07:00,
2013-10-03 13:12:00,55.2,54.3,29.89,NW,326,2.0,5.0,97,0.00,,,0.00,35.0,meteohub,2013-10-03 18:12:00,
2013-10-03 13:17:00,55.2,54.3,29.89,NE,40,0.0,5.0,97,0.00,,,0.00,28.0,meteohub,2013-10-03 18:17:00,
2013-10-03 13:22:00,55.0,54.1,29.89,NE,49,1.0,3.0,97,0.00,,,0.00,26.0,meteohub,2013-10-03 18:22:00,
2013-10-03 13:27:00,55.0,54.1,29.89,NE,42,0.0,3.0,97,0.00,,,0.00,35.0,meteohub,2013-10-03 18:27:00,
2013-10-03 13:32:00,55.0,54.1,29.89,NE,37,2.0,3.0,97,0.00,,,0.00,30.0,meteohub,2013-10-03 18:32:00,
2013-10-03 13:37:00,55.0,54.1,29.89,NE,41,0.0,4.0,97,0.00,,,0.00,25.0,meteohub,2013-10-03 18:37:00,
2013-10-03 13:42:00,55.0,54.1,29.89,NE,46,0.0,4.0,97,0.00,,,0.00,23.0,meteohub,2013-10-03 18:42:00,
2013-10-03 13:47:00,55.0,54.1,29.89,North,5,0.0,4.0,97,0.00,,,0.00,28.0,meteohub,2013-10-03 18:47:00,
2013-10-03 13:52:00,55.0,54.1,29.89,NW,310,1.0,4.0,97,0.00,,,0.00,35.0,meteohub,2013-10-03 18:52:00,
2013-10-03 13:57:00,55.0,54.1,29.89,NW,308,1.0,5.0,97,0.00,,,0.00,33.0,meteohub,2013-10-03 18:57:00,
2013-10-03 14:02:00,55.0,54.1,29.88,NNW,342,0.0,5.0,97,0.00,,,0.00,39.0,meteohub,2013-10-03 19:02:00,
2013-10-03 14:07:00,55.0,54.1,29.88,NW,315,0.0,3.0,97,0.00,,,0.00,47.0,meteohub,2013-10-03 19:07:00,
2013-10-03 14:12:00,55.0,54.1,29.89,NNE,24,0.0,3.0,97,0.00,,,0.00,44.0,meteohub,2013-10-03 19:12:00,
2013-10-03 14:17:00,55.0,54.1,29.89,North,355,0.0,3.0,97,0.00,,,0.00,39.0,meteohub,2013-10-03 19:17:00,
2013-10-03 14:22:00,55.0,54.1,29.89,NNE,24,0.0,3.0,97,0.00,,,0.00,33.0,meteohub,2013-10-03 19:22:00,
2013-10-03 14:27:00,55.0,54.1,29.90,NNW,327,0.0,4.0,97,0.00,,,0.00,19.0,meteohub,2013-10-03 19:27:00,
2013-10-03 14:32:00,55.0,54.1,29.90,NNW,338,1.0,4.0,97,0.00,,,0.00,21.0,meteohub,2013-10-03 19:32:00,
2013-10-03 14:38:00,55.0,54.1,29.90,North,5,0.0,2.0,97,0.00,,,0.00,26.0,meteohub,2013-10-03 19:38:00,
2013-10-03 14:43:00,54.9,54.0,29.90,NNE,26,0.0,3.0,97,0.00,,,0.00,26.0,meteohub,2013-10-03 19:43:00,
2013-10-03 14:48:00,54.9,54.0,29.90,NE,36,1.0,3.0,97,0.00,,,0.00,35.0,meteohub,2013-10-03 19:48:00,
2013-10-03 14:53:00,54.9,54.0,29.89,NE,36,1.0,3.0,97,0.00,,,0.00,33.0,meteohub,2013-10-03 19:53:00,
2013-10-03 14:58:00,54.9,54.0,29.89,NE,46,0.0,3.0,97,0.00,,,0.00,37.0,meteohub,2013-10-03 19:58:00,
2013-10-03 15:03:00,54.9,54.0,29.89,NW,315,0.0,3.0,97,0.00,,,0.00,33.0,meteohub,2013-10-03 20:03:00,
2013-10-03 15:08:00,54.9,54.0,29.90,NE,38,0.0,3.0,97,0.00,,,0.00,32.0,meteohub,2013-10-03 20:08:00,
2013-10-03 15:13:00,54.9,54.0,29.90,NW,310,0.0,3.0,97,0.00,,,0.00,26.0,meteohub,2013-10-03 20:13:00,
2013-10-03 15:18:00,54.9,54.0,29.90,NE,36,0.0,4.0,97,0.00,,,0.00,28.0,meteohub,2013-10-03 20:18:00,
2013-10-03 15:23:00,54.9,54.0,29.90,NE,38,0.0,4.0,97,0.00,,,0.00,32.0,meteohub,2013-10-03 20:23:00,
2013-10-03 15:28:00,54.9,54.0,29.90,NNW,334,0.0,4.0,97,0.00,,,0.00,39.0,meteohub,2013-10-03 20:28:00,
2013-10-03 15:33:00,54.9,54.0,29.90,NE,42,0.0,5.0,97,0.00,,,0.00,58.0,meteohub,2013-10-03 20:33:00,
2013-10-03 15:38:00,54.9,54.0,29.90,NNW,340,0.0,5.0,97,0.00,,,0.00,58.0,meteohub,2013-10-03 20:38:00,
2013-10-03 15:43:00,54.9,54.0,29.89,North,5,2.0,3.0,97,0.00,,,0.00,54.0,meteohub,2013-10-03 20:43:00,
2013-10-03 15:48:00,54.9,54.0,29.89,NNE,32,0.0,7.0,97,0.00,,,0.00,33.0,meteohub,2013-10-03 20:48:00,
2013-10-03 15:53:00,54.9,54.0,29.90,NNE,26,0.0,7.0,97,0.00,,,0.00,16.0,meteohub,2013-10-03 20:53:00,
2013-10-03 15:58:00,54.7,53.8,29.90,NE,48,2.0,7.0,97,0.00,,,0.00,23.0,meteohub,2013-10-03 20:58:00,
2013-10-03 16:03:00,54.7,53.8,29.90,NNE,32,1.0,3.0,97,0.00,,,0.00,35.0,meteohub,2013-10-03 21:03:00,
2013-10-03 16:08:00,54.5,53.6,29.90,West,281,0.0,4.0,97,0.00,,,0.00,21.0,meteohub,2013-10-03 21:08:00,
2013-10-03 16:13:00,54.5,53.6,29.90,NNE,30,2.0,4.0,97,0.00,,,0.00,26.0,meteohub,2013-10-03 21:13:00,
2013-10-03 16:18:00,54.3,53.4,29.90,North,355,0.0,4.0,97,0.00,,,0.00,26.0,meteohub,2013-10-03 21:18:00,
2013-10-03 16:23:00,54.3,53.4,29.90,NNE,30,1.0,4.0,97,0.00,,,0.00,21.0,meteohub,2013-10-03 21:23:00,
2013-10-03 16:28:00,54.5,53.6,29.90,NE,38,1.0,4.0,97,0.00,,,0.00,19.0,meteohub,2013-10-03 21:28:00,
2013-10-03 16:33:00,54.3,53.4,29.90,North,5,0.0,3.0,97,0.00,,,0.00,12.0,meteohub,2013-10-03 21:33:00,
2013-10-03 16:38:00,54.3,53.4,29.89,NE,34,2.0,3.0,97,0.00,,,0.00,21.0,meteohub,2013-10-03 21:38:00,
2013-10-03 16:44:00,54.3,53.4,29.89,NNW,330,0.0,3.0,97,0.00,,,0.00,26.0,meteohub,2013-10-03 21:44:00,
2013-10-03 16:49:00,54.3,53.4,29.89,NW,319,0.0,3.0,97,0.00,,,0.00,26.0,meteohub,2013-10-03 21:49:00,
2013-10-03 16:54:00,54.5,53.6,29.89,NNW,345,0.0,3.0,97,0.00,,,0.00,35.0,meteohub,2013-10-03 21:54:00,
2013-10-03 16:59:00,54.5,53.6,29.89,NE,51,1.0,4.0,97,0.00,,,0.00,28.0,meteohub,2013-10-03 21:59:00,
2013-10-03 17:04:00,54.7,53.8,29.89,NW,317,0.0,4.0,97,0.00,,,0.00,39.0,meteohub,2013-10-03 22:04:00,
2013-10-03 17:09:00,54.7,53.8,29.89,ENE,59,0.0,4.0,97,0.00,,,0.00,44.0,meteohub,2013-10-03 22:09:00,
2013-10-03 17:14:00,54.7,53.8,29.89,WNW,290,0.0,4.0,97,0.00,,,0.00,35.0,meteohub,2013-10-03 22:14:00,
2013-10-03 17:19:00,54.7,53.8,29.89,NNW,337,2.0,4.0,97,0.00,,,0.00,40.0,meteohub,2013-10-03 22:19:00,
2013-10-03 17:24:00,54.7,53.8,29.88,NNW,337,1.0,4.0,97,0.00,,,0.00,33.0,meteohub,2013-10-03 22:24:00,
2013-10-03 17:29:00,54.7,53.8,29.87,NE,38,0.0,3.0,97,0.00,,,0.00,25.0,meteohub,2013-10-03 22:29:00,
2013-10-03 17:34:00,54.7,53.8,29.86,NNW,346,0.0,3.0,97,0.00,,,0.00,23.0,meteohub,2013-10-03 22:34:00,
2013-10-03 17:39:00,54.7,53.8,29.87,North,11,3.0,3.0,97,0.00,,,0.00,26.0,meteohub,2013-10-03 22:39:00,
2013-10-03 17:44:00,54.7,53.8,29.87,NW,313,0.0,3.0,97,0.00,,,0.00,32.0,meteohub,2013-10-03 22:44:00,
2013-10-03 17:49:00,54.7,53.8,29.89,NW,309,1.0,3.0,97,0.00,,,0.00,12.0,meteohub,2013-10-03 22:49:00,
2013-10-03 17:54:00,54.9,54.0,29.90,NW,309,0.0,7.0,97,0.00,,,0.00,14.0,meteohub,2013-10-03 22:54:00,
2013-10-03 17:59:00,54.9,54.0,29.90,NW,309,0.0,7.0,97,0.00,,,0.00,14.0,meteohub,2013-10-03 22:59:00,
2013-10-03 18:04:00,54.9,54.0,29.90,NW,311,0.0,7.0,97,0.00,,,0.00,16.0,meteohub,2013-10-03 23:04:00,
2013-10-03 18:09:00,54.9,54.0,29.91,NW,311,0.0,2.0,97,0.00,,,0.00,9.0,meteohub,2013-10-03 23:09:00,
2013-10-03 18:14:00,54.9,54.0,29.91,NW,311,0.0,2.0,97,0.00,,,0.00,5.0,meteohub,2013-10-03 23:14:00,
2013-10-03 18:19:00,54.9,54.0,29.91,NNE,15,0.0,2.0,97,0.00,,,0.00,0.0,meteohub,2013-10-03 23:19:00,
2013-10-03 18:24:00,54.9,54.0,29.91,North,5,0.0,1.0,97,0.00,,,0.00,0.0,meteohub,2013-10-03 23:24:00,
2013-10-03 18:29:00,54.7,53.8,29.91,NW,313,0.0,1.0,97,0.00,,,0.00,0.0,meteohub,2013-10-03 23:29:00,
2013-10-03 18:34:00,54.7,53.8,29.91,NNW,336,0.0,2.0,97,0.00,,,0.00,0.0,meteohub,2013-10-03 23:34:00,
2013-10-03 18:39:00,54.7,53.8,29.91,NW,310,0.0,2.0,97,0.00,,,0.00,0.0,meteohub,2013-10-03 23:39:00,
2013-10-03 18:45:00,54.7,53.8,29.91,North,10,0.0,4.0,97,0.00,,,0.00,0.0,meteohub,2013-10-03 23:45:00,
2013-10-03 18:50:00,54.5,53.6,29.91,North,5,0.0,4.0,97,0.00,,,0.00,0.0,meteohub,2013-10-03 23:50:00,
2013-10-03 18:55:00,54.5,53.6,29.91,NNE,32,1.0,4.0,97,0.00,,,0.00,0.0,meteohub,2013-10-03 23:55:00,
2013-10-03 19:00:00,54.5,53.6,29.91,NE,37,4.0,4.0,97,0.00,,,0.00,0.0,meteohub,2013-10-04 00:00:00,
2013-10-03 19:05:00,54.3,53.4,29.91,NE,34,2.0,5.0,97,0.00,,,0.00,0.0,meteohub,2013-10-04 00:05:00,
2013-10-03 19:10:00,54.5,53.6,29.91,NNE,30,1.0,6.0,97,0.00,,,0.00,0.0,meteohub,2013-10-04 00:10:00,
2013-10-03 19:15:00,54.3,53.4,29.91,North,5,0.0,6.0,97,0.00,,,0.00,0.0,meteohub,2013-10-04 00:15:00,
2013-10-03 19:20:00,54.3,53.4,29.91,NNE,27,2.0,6.0,97,0.00,,,0.00,0.0,meteohub,2013-10-04 00:20:00,
2013-10-03 19:25:00,54.3,53.4,29.91,NE,34,0.0,5.0,97,0.00,,,0.00,0.0,meteohub,2013-10-04 00:25:00,
2013-10-03 19:30:00,54.3,53.4,29.92,NE,34,1.0,4.0,97,0.00,,,0.00,0.0,meteohub,2013-10-04 00:30:00,
2013-10-03 19:35:00,54.3,53.4,29.92,NE,37,1.0,5.0,97,0.00,,,0.00,0.0,meteohub,2013-10-04 00:35:00,
2013-10-03 19:40:00,54.3,53.4,29.92,North,9,1.0,5.0,97,0.00,,,0.00,0.0,meteohub,2013-10-04 00:40:00,
2013-10-03 19:45:00,54.3,53.4,29.93,NW,315,2.0,5.0,97,0.00,,,0.00,0.0,meteohub,2013-10-04 00:45:00,
2013-10-03 19:50:00,54.3,53.4,29.93,NNE,26,2.0,4.0,97,0.00,,,0.00,0.0,meteohub,2013-10-04 00:50:00,
2013-10-03 19:55:00,54.1,53.2,29.93,NNW,327,1.0,5.0,97,0.00,,,0.00,0.0,meteohub,2013-10-04 00:55:00,
2013-10-03 20:00:00,54.1,53.2,29.93,NNE,27,0.0,5.0,97,0.00,,,0.00,0.0,meteohub,2013-10-04 01:00:00,
2013-10-03 20:05:00,54.3,53.4,29.93,NE,41,0.0,5.0,97,0.00,,,0.00,0.0,meteohub,2013-10-04 01:05:00,
2013-10-03 20:10:00,54.3,53.4,29.93,NNE,32,1.0,4.0,97,0.00,,,0.00,0.0,meteohub,2013-10-04 01:10:00,
2013-10-03 20:15:00,54.3,53.4,29.93,North,9,0.0,3.0,97,0.00,,,0.00,0.0,meteohub,2013-10-04 01:15:00,
2013-10-03 20:20:00,54.3,53.4,29.94,North,0,0.0,3.0,97,0.00,,,0.00,0.0,meteohub,2013-10-04 01:20:00,
2013-10-03 20:25:00,54.3,53.4,29.94,NE,40,0.0,3.0,97,0.00,,,0.00,0.0,meteohub,2013-10-04 01:25:00,
2013-10-03 20:30:00,54.3,53.4,29.94,NNE,15,1.0,5.0,97,0.00,,,0.00,0.0,meteohub,2013-10-04 01:30:00,
2013-10-03 20:35:00,54.3,53.4,29.95,NNE,29,0.0,5.0,97,0.00,,,0.00,0.0,meteohub,2013-10-04 01:35:00,
2013-10-03 20:40:00,54.3,53.4,29.95,NNW,331,1.0,3.0,97,0.00,,,0.00,0.0,meteohub,2013-10-04 01:40:00,
2013-10-03 20:45:00,54.3,53.4,29.95,NNW,333,1.0,3.0,97,0.00,,,0.00,0.0,meteohub,2013-10-04 01:45:00,
2013-10-03 20:50:00,54.3,53.4,29.95,NW,323,0.0,4.0,97,0.00,,,0.00,0.0,meteohub,2013-10-04 01:50:00,
2013-10-03 20:56:00,54.3,53.4,29.95,North,0,0.0,5.0,97,0.00,,,0.00,0.0,meteohub,2013-10-04 01:56:00,
2013-10-03 21:01:00,54.1,53.2,29.96,NNW,329,1.0,5.0,97,0.00,,,0.00,0.0,meteohub,2013-10-04 02:01:00,
2013-10-03 21:06:00,54.1,53.2,29.96,NNW,345,0.0,4.0,97,0.00,,,0.00,0.0,meteohub,2013-10-04 02:06:00,
2013-10-03 21:11:00,54.3,53.4,29.96,NNW,345,0.0,4.0,97,0.00,,,0.00,0.0,meteohub,2013-10-04 02:11:00,
2013-10-03 21:16:00,54.3,53.4,29.96,NE,38,2.0,3.0,97,0.00,,,0.00,0.0,meteohub,2013-10-04 02:16:00,
2013-10-03 21:21:00,54.1,53.2,29.97,North,0,1.0,4.0,97,0.00,,,0.00,0.0,meteohub,2013-10-04 02:21:00,
2013-10-03 21:26:00,54.1,53.2,29.97,NE,36,2.0,5.0,97,0.00,,,0.00,0.0,meteohub,2013-10-04 02:26:00,
2013-10-03 21:31:00,54.1,53.2,29.97,NE,35,0.0,5.0,97,0.00,,,0.00,0.0,meteohub,2013-10-04 02:31:00,
2013-10-03 21:36:00,54.1,53.2,29.98,NE,37,0.0,4.0,97,0.00,,,0.00,0.0,meteohub,2013-10-04 02:36:00,
2013-10-03 21:41:00,54.1,53.2,29.98,NE,37,0.0,4.0,97,0.00,,,0.00,0.0,meteohub,2013-10-04 02:41:00,
2013-10-03 21:46:00,54.1,53.2,29.98,NE,37,0.0,4.0,97,0.00,,,0.00,0.0,meteohub,2013-10-04 02:46:00,
2013-10-03 21:51:00,54.1,53.2,29.98,WNW,298,0.0,4.0,97,0.00,,,0.00,0.0,meteohub,2013-10-04 02:51:00,
2013-10-03 21:56:00,54.1,53.2,29.98,NW,322,0.0,4.0,97,0.00,,,0.00,0.0,meteohub,2013-10-04 02:56:00,
2013-10-03 22:01:00,54.1,53.2,29.99,NNE,32,0.0,4.0,97,0.00,,,0.00,0.0,meteohub,2013-10-04 03:01:00,
2013-10-03 22:06:00,54.1,53.2,29.99,NE,39,0.0,3.0,97,0.00,,,0.00,0.0,meteohub,2013-10-04 03:06:00,
2013-10-03 22:11:00,54.1,53.2,29.99,NE,41,0.0,3.0,97,0.00,,,0.00,0.0,meteohub,2013-10-04 03:11:00,
2013-10-03 22:16:00,54.0,53.1,29.99,NE,46,0.0,3.0,97,0.00,,,0.00,0.0,meteohub,2013-10-04 03:16:00,
2013-10-03 22:21:00,54.0,53.1,29.99,NNW,348,0.0,3.0,97,0.00,,,0.00,0.0,meteohub,2013-10-04 03:21:00,
2013-10-03 22:26:00,54.0,53.1,29.99,NNE,32,2.0,2.0,97,0.00,,,0.00,0.0,meteohub,2013-10-04 03:26:00,
2013-10-03 22:31:00,54.0,53.1,29.99,NE,42,2.0,3.0,97,0.00,,,0.00,0.0,meteohub,2013-10-04 03:31:00,
2013-10-03 22:36:00,54.0,53.1,29.99,NE,42,0.0,6.0,97,0.00,,,0.00,0.0,meteohub,2013-10-04 03:36:00,
2013-10-03 22:41:00,54.0,53.1,29.99,NNE,32,1.0,6.0,97,0.00,,,0.00,0.0,meteohub,2013-10-04 03:41:00,
2013-10-03 22:46:00,53.8,52.9,29.99,NNW,331,0.0,6.0,97,0.00,,,0.00,0.0,meteohub,2013-10-04 03:46:00,
2013-10-03 22:51:00,53.8,52.9,29.99,NNE,32,0.0,3.0,97,0.00,,,0.00,0.0,meteohub,2013-10-04 03:51:00,
2013-10-03 22:56:00,53.8,52.9,29.99,North,5,1.0,3.0,97,0.00,,,0.00,0.0,meteohub,2013-10-04 03:56:00,
2013-10-03 23:31:00,53.6,53.1,29.98,NE,38,4.0,4.0,98,0.00,,,0.00,0.0,meteohub,2013-10-04 04:31:00,
2013-10-03 23:32:00,53.6,53.1,29.98,NNE,31,3.0,4.0,98,0.00,,,0.00,0.0,meteohub,2013-10-04 04:32:00,
2013-10-03 23:34:00,53.6,53.1,29.98,WNW,296,2.0,4.0,98,0.00,,,0.00,0.0,meteohub,2013-10-04 04:34:00,
2013-10-03 23:35:00,53.6,53.1,29.98,NW,314,0.0,5.0,98,0.00,,,0.00,0.0,meteohub,2013-10-04 04:35:00,
2013-10-03 23:37:00,53.6,53.1,29.98,NNW,331,0.0,5.0,98,0.00,,,0.00,0.0,meteohub,2013-10-04 04:37:00,
2013-10-03 23:42:00,53.4,52.9,29.98,NNW,335,1.0,5.0,98,0.00,,,0.00,0.0,meteohub,2013-10-04 04:42:00,
2013-10-03 23:43:00,53.6,53.1,29.98,NE,51,2.0,5.0,98,0.00,,,0.00,0.0,meteohub,2013-10-04 04:43:00,
2013-10-03 23:44:00,53.4,52.9,29.98,NE,51,1.0,5.0,98,0.00,,,0.00,0.0,meteohub,2013-10-04 04:44:00,
2013-10-03 23:46:00,53.6,53.1,29.98,NE,42,1.0,6.0,98,0.00,,,0.00,0.0,meteohub,2013-10-04 04:46:00,
2013-10-03 23:47:00,53.4,52.9,29.98,NE,42,0.0,6.0,98,0.00,,,0.00,0.0,meteohub,2013-10-04 04:47:00,
2013-10-03 23:50:00,53.4,52.9,29.97,NE,42,2.0,6.0,98,0.00,,,0.00,0.0,meteohub,2013-10-04 04:50:00,
2013-10-03 23:52:00,53.4,52.9,29.97,NE,39,1.0,6.0,98,0.00,,,0.00,0.0,meteohub,2013-10-04 04:52:00,
2013-10-03 23:56:00,53.4,52.9,29.97,NNW,327,1.0,4.0,98,0.00,,,0.00,0.0,meteohub,2013-10-04 04:56:00,
2013-10-03 23:59:00,53.4,52.9,29.97,NE,39,0.0,4.0,98,0.00,,,0.00,0.0,meteohub,2013-10-04 04:59:00,